TimeCST,TemperatureF,Dew PointF,Humidity,Sea Level PressureIn,VisibilityMPH,Wind Direction,Wind SpeedMPH,Gust SpeedMPH,PrecipitationIn,Events,Conditions,WindDirDegrees,DateUTC
12:15 AM,56.5,51.8,84,30.04,10.0,WSW,12.7,17.3,N/A,,Overcast,250,2012-11-23 06:15:00
12:35 AM,56.7,51.6,83,30.04,10.0,WSW,12.7,18.4,N/A,,Overcast,250,2012-11-23 06:35:00
12:55 AM,56.5,51.4,83,30.04,10.0,West,12.7,-,N/A,,Overcast,270,2012-11-23 06:55:00
1:15 AM,56.5,50.7,81,30.06,10.0,WNW,12.7,20.7,N/A,,Overcast,290,2012-11-23 07:15:00
1:35 AM,54.0,41.4,62,30.08,10.0,NNW,17.3,28.8,N/A,,Overcast,330,2012-11-23 07:35:00
1:55 AM,52.2,41.0,66,30.09,10.0,NW,15.0,18.4,N/A,,Mostly Cloudy,320,2012-11-23 07:55:00
2:15 AM,50.5,39.2,65,30.10,10.0,WNW,13.8,21.9,N/A,,Clear,300,2012-11-23 08:15:00
2:35 AM,50.0,35.6,58,30.11,10.0,NW,15.0,24.2,N/A,,Clear,320,2012-11-23 08:35:00
2:55 AM,48.4,35.6,61,30.12,10.0,NW,17.3,-,N/A,,Clear,320,2012-11-23 08:55:00
3:15 AM,47.5,34.0,59,30.13,10.0,NW,18.4,25.3,N/A,,Clear,320,2012-11-23 09:15:00
3:35 AM,46.8,34.0,61,30.13,10.0,NW,15.0,18.4,N/A,,Clear,320,2012-11-23 09:35:00
3:55 AM,45.9,34.3,64,30.13,10.0,NW,10.4,-,N/A,,Clear,310,2012-11-23 09:55:00
4:15 AM,45.0,34.5,67,30.14,10.0,NW,6.9,-,N/A,,Clear,310,2012-11-23 10:15:00
4:35 AM,44.6,35.6,71,30.13,10.0,WNW,6.9,-,N/A,,Clear,290,2012-11-23 10:35:00
4:55 AM,44.4,34.0,67,30.13,10.0,WNW,6.9,-,N/A,,Clear,290,2012-11-23 10:55:00
5:15 AM,43.7,33.8,68,30.14,10.0,WNW,6.9,-,N/A,,Clear,290,2012-11-23 11:15:00
5:35 AM,43.9,32.2,63,30.14,10.0,WNW,8.1,-,N/A,,Clear,290,2012-11-23 11:35:00
5:55 AM,43.7,31.6,63,30.15,10.0,West,10.4,-,N/A,,Clear,280,2012-11-23 11:55:00
6:15 AM,43.0,31.6,64,30.15,10.0,West,6.9,-,N/A,,Clear,280,2012-11-23 12:15:00
6:35 AM,41.9,32.7,70,30.15,10.0,West,9.2,-,N/A,,Clear,280,2012-11-23 12:35:00
6:55 AM,42.1,32.0,67,30.16,10.0,West,9.2,-,N/A,,Clear,280,2012-11-23 12:55:00
7:15 AM,41.9,32.0,68,30.16,10.0,West,8.1,-,N/A,,Clear,280,2012-11-23 13:15:00
7:35 AM,42.3,32.0,67,30.17,10.0,West,9.2,-,N/A,,Clear,280,2012-11-23 13:35:00
7:55 AM,43.2,31.5,63,30.18,10.0,WNW,11.5,16.1,N/A,,Clear,290,2012-11-23 13:55:00
8:15 AM,43.9,31.1,61,30.18,10.0,WNW,13.8,17.3,N/A,,Clear,290,2012-11-23 14:15:00
8:35 AM,44.6,31.5,60,30.19,10.0,WNW,15.0,23.0,N/A,,Mostly Cloudy,300,2012-11-23 14:35:00
8:55 AM,43.9,31.3,61,30.20,10.0,WNW,15.0,24.2,N/A,,Overcast,300,2012-11-23 14:55:00
9:15 AM,43.9,31.6,62,30.21,10.0,WNW,15.0,21.9,N/A,,Overcast,300,2012-11-23 15:15:00
9:35 AM,43.7,31.3,62,30.21,10.0,NW,16.1,24.2,N/A,,Overcast,310,2012-11-23 15:35:00
9:55 AM,44.4,31.1,60,30.21,10.0,WNW,15.0,24.2,N/A,,Scattered Clouds,300,2012-11-23 15:55:00
10:15 AM,43.7,27.7,53,30.23,10.0,WNW,23.0,28.8,N/A,,Mostly Cloudy,300,2012-11-23 16:15:00
10:35 AM,43.2,26.6,52,30.24,10.0,WNW,21.9,27.6,N/A,,Overcast,300,2012-11-23 16:35:00
10:55 AM,42.8,28.4,57,30.23,10.0,WNW,18.4,23.0,N/A,,Overcast,300,2012-11-23 16:55:00
11:15 AM,43.3,28.0,55,30.23,10.0,WNW,19.6,27.6,N/A,,Mostly Cloudy,290,2012-11-23 17:15:00
11:35 AM,43.7,26.4,51,30.22,10.0,WNW,19.6,27.6,N/A,,Scattered Clouds,290,2012-11-23 17:35:00
11:55 AM,44.6,26.6,49,30.22,10.0,WNW,12.7,25.3,N/A,,Clear,290,2012-11-23 17:55:00
12:15 PM,44.2,24.8,46,30.22,10.0,WNW,18.4,29.9,N/A,,Clear,290,2012-11-23 18:15:00
12:35 PM,44.4,25.0,46,30.22,10.0,WNW,18.4,25.3,N/A,,Clear,290,2012-11-23 18:35:00
12:55 PM,44.1,22.3,42,30.22,10.0,WNW,18.4,32.2,N/A,,Clear,300,2012-11-23 18:55:00
1:15 PM,44.2,22.5,42,30.22,10.0,WNW,19.6,27.6,N/A,,Clear,300,2012-11-23 19:15:00
1:35 PM,44.6,21.6,40,30.23,10.0,WNW,19.6,25.3,N/A,,Clear,300,2012-11-23 19:35:00
1:55 PM,44.1,17.8,35,30.23,10.0,NW,18.4,33.4,N/A,,Clear,310,2012-11-23 19:55:00
2:15 PM,43.7,19.0,37,30.23,10.0,NW,17.3,24.2,N/A,,Clear,310,2012-11-23 20:15:00
2:35 PM,43.3,19.0,38,30.23,10.0,WNW,19.6,28.8,N/A,,Clear,300,2012-11-23 20:35:00
2:55 PM,42.8,18.3,37,30.24,10.0,WNW,18.4,27.6,N/A,,Clear,300,2012-11-23 20:55:00
3:15 PM,42.3,18.5,39,30.25,10.0,NW,17.3,24.2,N/A,,Clear,310,2012-11-23 21:15:00
3:35 PM,41.9,18.7,39,30.25,10.0,NW,17.3,21.9,N/A,,Clear,320,2012-11-23 21:35:00
3:55 PM,41.2,18.9,41,30.25,10.0,NW,15.0,25.3,N/A,,Clear,310,2012-11-23 21:55:00
4:15 PM,40.6,18.1,40,30.26,10.0,NW,15.0,21.9,N/A,,Clear,310,2012-11-23 22:15:00
4:35 PM,39.6,20.7,47,30.26,10.0,NW,11.5,17.3,N/A,,Clear,310,2012-11-23 22:35:00
4:55 PM,39.2,19.6,45,30.26,10.0,WNW,10.4,-,N/A,,Clear,300,2012-11-23 22:55:00
5:15 PM,38.7,19.8,47,30.28,10.0,WNW,12.7,17.3,N/A,,Clear,300,2012-11-23 23:15:00
5:35 PM,37.9,19.2,47,30.29,10.0,WNW,12.7,19.6,N/A,,Clear,300,2012-11-23 23:35:00
5:55 PM,37.4,18.5,46,30.30,10.0,NW,13.8,-,N/A,,Clear,310,2012-11-23 23:55:00
6:15 PM,36.5,19.2,50,30.30,10.0,NW,6.9,-,N/A,,Clear,310,2012-11-24 00:15:00
6:35 PM,36.0,19.6,51,30.30,10.0,WNW,8.1,-,N/A,,Clear,300,2012-11-24 00:35:00
6:55 PM,35.8,20.1,53,30.31,10.0,NW,5.8,-,N/A,,Clear,310,2012-11-24 00:55:00
7:15 PM,35.2,20.1,54,30.32,10.0,NW,10.4,-,N/A,,Clear,320,2012-11-24 01:15:00
7:35 PM,34.9,19.6,54,30.32,10.0,NW,12.7,18.4,N/A,,Clear,320,2012-11-24 01:35:00
7:55 PM,34.7,18.9,52,30.32,10.0,NW,13.8,20.7,N/A,,Clear,310,2012-11-24 01:55:00
8:15 PM,34.2,18.9,54,30.32,10.0,NW,10.4,-,N/A,,Clear,310,2012-11-24 02:15:00
8:35 PM,33.8,19.4,56,30.32,10.0,NW,8.1,-,N/A,,Clear,310,2012-11-24 02:35:00
8:55 PM,33.3,19.0,56,30.32,10.0,NW,12.7,19.6,N/A,,Clear,310,2012-11-24 02:55:00
9:15 PM,33.1,18.7,56,30.32,10.0,NW,12.7,-,N/A,,Clear,310,2012-11-24 03:15:00
9:35 PM,32.5,19.4,58,30.32,10.0,NW,9.2,-,N/A,,Clear,320,2012-11-24 03:35:00
9:55 PM,32.0,19.9,61,30.32,10.0,NW,8.1,-,N/A,,Clear,320,2012-11-24 03:55:00
10:15 PM,32.0,19.0,59,30.32,10.0,NW,10.4,16.1,N/A,,Clear,320,2012-11-24 04:15:00
10:35 PM,32.0,18.0,56,30.32,10.0,NNW,12.7,17.3,N/A,,Clear,330,2012-11-24 04:35:00
10:55 PM,32.0,17.6,55,30.32,10.0,NW,10.4,-,N/A,,Clear,310,2012-11-24 04:55:00
11:15 PM,31.6,18.1,57,30.32,10.0,NW,11.5,-,N/A,,Clear,320,2012-11-24 05:15:00
11:35 PM,31.1,18.1,59,30.32,10.0,NW,8.1,-,N/A,,Clear,310,2012-11-24 05:35:00
11:55 PM,31.1,17.4,57,30.32,10.0,NW,8.1,-,N/A,,Clear,310,2012-11-24 05:55:00